Time,TemperatureF,DewpointF,PressureIn,WindDirection,WindDirectionDegrees,WindSpeedMPH,WindSpeedGustMPH,Humidity,HourlyPrecipIn,Conditions,Clouds,dailyrainin,SoftwareType,DateUTC
2013-09-10 00:01:00,66.4,60.8,30.15,WSW,238,0.0,2.0,82,0.00,,,0.00,meteohub,2013-09-10 04:01:00,
2013-09-10 00:02:00,66.4,60.8,30.14,WSW,238,0.0,2.0,82,0.00,,,0.00,meteohub,2013-09-10 04:02:00,
2013-09-10 00:07:00,66.4,60.8,30.14,WSW,238,0.0,1.0,82,0.00,,,0.00,meteohub,2013-09-10 04:07:00,
2013-09-10 00:12:00,66.4,60.8,30.14,WSW,244,0.0,0.0,82,0.00,,,0.00,meteohub,2013-09-10 04:12:00,
2013-09-10 00:17:00,66.4,60.8,30.14,WSW,255,0.0,2.0,82,0.00,,,0.00,meteohub,2013-09-10 04:17:00,
2013-09-10 00:22:00,66.4,61.0,30.14,WSW,248,0.0,2.0,83,0.00,,,0.00,meteohub,2013-09-10 04:22:00,
2013-09-10 00:27:00,66.4,60.8,30.14,WSW,248,0.0,3.0,82,0.00,,,0.00,meteohub,2013-09-10 04:27:00,
2013-09-10 00:32:00,66.4,61.0,30.14,WSW,246,0.0,3.0,83,0.00,,,0.00,meteohub,2013-09-10 04:32:00,
2013-09-10 00:37:00,66.6,61.2,30.14,WSW,240,0.0,3.0,83,0.00,,,0.00,meteohub,2013-09-10 04:37:00,
2013-09-10 00:42:00,66.7,61.0,30.14,SW,219,0.0,3.0,82,0.00,,,0.00,meteohub,2013-09-10 04:42:00,
2013-09-10 00:47:00,66.7,61.0,30.14,WSW,239,0.0,3.0,82,0.00,,,0.00,meteohub,2013-09-10 04:47:00,
2013-09-10 00:52:00,66.7,61.0,30.14,WSW,246,0.0,3.0,82,0.00,,,0.00,meteohub,2013-09-10 04:52:00,
2013-09-10 00:57:00,66.9,61.2,30.14,SW,235,0.0,1.0,82,0.00,,,0.00,meteohub,2013-09-10 04:57:00,
2013-09-10 01:02:00,66.9,61.2,30.13,WSW,239,0.0,1.0,82,0.00,,,0.00,meteohub,2013-09-10 05:02:00,
2013-09-10 01:07:00,66.9,61.2,30.13,SW,233,1.0,1.0,82,0.00,,,0.00,meteohub,2013-09-10 05:07:00,
2013-09-10 01:12:00,67.3,61.5,30.12,WSW,248,1.0,3.0,82,0.00,,,0.00,meteohub,2013-09-10 05:12:00,
2013-09-10 01:18:00,67.3,61.5,30.13,WSW,248,1.0,3.0,82,0.00,,,0.00,meteohub,2013-09-10 05:18:00,
2013-09-10 01:23:00,67.5,61.7,30.13,South,190,1.0,7.0,82,0.00,,,0.00,meteohub,2013-09-10 05:23:00,
2013-09-10 01:28:00,67.5,61.7,30.13,SW,235,0.0,7.0,82,0.00,,,0.00,meteohub,2013-09-10 05:28:00,
2013-09-10 01:33:00,67.5,61.7,30.14,WSW,252,1.0,7.0,82,0.00,,,0.00,meteohub,2013-09-10 05:33:00,
2013-09-10 01:38:00,67.6,61.9,30.14,WSW,248,0.0,5.0,82,0.00,,,0.00,meteohub,2013-09-10 05:38:00,
2013-09-10 01:43:00,67.6,61.9,30.14,WSW,256,0.0,5.0,82,0.00,,,0.00,meteohub,2013-09-10 05:43:00,
2013-09-10 01:48:00,67.6,61.9,30.14,WSW,255,0.0,5.0,82,0.00,,,0.00,meteohub,2013-09-10 05:48:00,
2013-09-10 01:53:00,67.6,61.9,30.14,WSW,238,0.0,5.0,82,0.00,,,0.00,meteohub,2013-09-10 05:53:00,
2013-09-10 01:58:00,67.6,61.9,30.13,WSW,249,0.0,3.0,82,0.00,,,0.00,meteohub,2013-09-10 05:58:00,
2013-09-10 02:03:00,67.8,62.1,30.13,SW,229,0.0,3.0,82,0.00,,,0.00,meteohub,2013-09-10 06:03:00,
2013-09-10 02:08:00,67.8,62.1,30.13,SW,218,0.0,3.0,82,0.00,,,0.00,meteohub,2013-09-10 06:08:00,
2013-09-10 02:13:00,67.6,61.9,30.13,SW,218,0.0,3.0,82,0.00,,,0.00,meteohub,2013-09-10 06:13:00,
2013-09-10 02:18:00,67.8,62.1,30.13,WSW,243,1.0,3.0,82,0.00,,,0.00,meteohub,2013-09-10 06:18:00,
2013-09-10 02:23:00,67.8,62.1,30.13,WSW,256,0.0,3.0,82,0.00,,,0.00,meteohub,2013-09-10 06:23:00,
2013-09-10 02:28:00,67.8,62.1,30.13,SW,218,0.0,2.0,82,0.00,,,0.00,meteohub,2013-09-10 06:28:00,
2013-09-10 02:33:00,67.8,62.1,30.13,SW,221,0.0,2.0,82,0.00,,,0.00,meteohub,2013-09-10 06:33:00,
2013-09-10 02:38:00,67.8,62.1,30.13,SW,214,0.0,1.0,82,0.00,,,0.00,meteohub,2013-09-10 06:38:00,
2013-09-10 02:43:00,67.8,62.4,30.13,SW,214,0.0,1.0,83,0.00,,,0.00,meteohub,2013-09-10 06:43:00,
2013-09-10 02:48:00,67.8,62.4,30.13,SW,214,0.0,0.0,83,0.00,,,0.00,meteohub,2013-09-10 06:48:00,
2013-09-10 02:53:00,67.8,62.4,30.13,SW,231,0.0,0.0,83,0.00,,,0.00,meteohub,2013-09-10 06:53:00,
2013-09-10 02:58:00,67.8,62.4,30.13,WSW,238,0.0,0.0,83,0.00,,,0.00,meteohub,2013-09-10 06:58:00,
2013-09-10 03:03:00,67.8,62.4,30.12,WSW,249,0.0,0.0,83,0.00,,,0.00,meteohub,2013-09-10 07:03:00,
2013-09-10 03:08:00,67.6,62.6,30.12,SW,233,0.0,0.0,84,0.00,,,0.00,meteohub,2013-09-10 07:08:00,
2013-09-10 03:13:00,67.6,62.6,30.12,WSW,240,1.0,2.0,84,0.00,,,0.00,meteohub,2013-09-10 07:13:00,
2013-09-10 03:19:00,67.6,62.6,30.12,WSW,240,0.0,2.0,84,0.00,,,0.00,meteohub,2013-09-10 07:19:00,
2013-09-10 03:24:00,67.8,62.8,30.12,WSW,245,0.0,3.0,84,0.00,,,0.00,meteohub,2013-09-10 07:24:00,
2013-09-10 03:29:00,67.6,63.0,30.12,WSW,245,0.0,3.0,85,0.00,,,0.00,meteohub,2013-09-10 07:29:00,
2013-09-10 03:34:00,67.6,62.6,30.12,SW,233,1.0,3.0,84,0.00,,,0.00,meteohub,2013-09-10 07:34:00,
2013-09-10 03:39:00,67.8,62.8,30.12,WSW,246,0.0,2.0,84,0.00,,,0.00,meteohub,2013-09-10 07:39:00,
2013-09-10 03:44:00,67.8,62.8,30.12,WSW,246,2.0,3.0,84,0.00,,,0.00,meteohub,2013-09-10 07:44:00,
2013-09-10 03:49:00,67.8,63.1,30.12,WSW,239,0.0,3.0,85,0.00,,,0.00,meteohub,2013-09-10 07:49:00,
2013-09-10 03:54:00,67.8,63.1,30.12,SW,225,3.0,4.0,85,0.00,,,0.00,meteohub,2013-09-10 07:54:00,
2013-09-10 03:59:00,67.8,63.1,30.12,WSW,250,1.0,5.0,85,0.00,,,0.00,meteohub,2013-09-10 07:59:00,
2013-09-10 04:04:00,67.8,63.1,30.12,West,266,1.0,5.0,85,0.00,,,0.00,meteohub,2013-09-10 08:04:00,
2013-09-10 04:09:00,67.8,63.1,30.12,WSW,245,2.0,4.0,85,0.00,,,0.00,meteohub,2013-09-10 08:09:00,
2013-09-10 04:14:00,67.8,63.1,30.12,SW,235,0.0,4.0,85,0.00,,,0.00,meteohub,2013-09-10 08:14:00,
2013-09-10 04:19:00,67.8,63.1,30.12,WSW,240,2.0,4.0,85,0.00,,,0.00,meteohub,2013-09-10 08:19:00,
2013-09-10 04:24:00,68.0,63.3,30.12,WSW,248,2.0,4.0,85,0.00,,,0.00,meteohub,2013-09-10 08:24:00,
2013-09-10 04:29:00,68.2,63.1,30.12,WSW,239,1.0,3.0,84,0.00,,,0.00,meteohub,2013-09-10 08:29:00,
2013-09-10 04:34:00,68.2,63.1,30.12,SW,226,0.0,4.0,84,0.00,,,0.00,meteohub,2013-09-10 08:34:00,
2013-09-10 04:39:00,68.2,63.5,30.12,WSW,248,0.0,4.0,85,0.00,,,0.00,meteohub,2013-09-10 08:39:00,
2013-09-10 04:44:00,68.2,63.5,30.12,WSW,248,0.0,3.0,85,0.00,,,0.00,meteohub,2013-09-10 08:44:00,
2013-09-10 04:49:00,68.0,63.7,30.12,WSW,237,0.0,2.0,86,0.00,,,0.00,meteohub,2013-09-10 08:49:00,
2013-09-10 04:54:00,67.8,63.9,30.12,WSW,239,0.0,2.0,87,0.00,,,0.00,meteohub,2013-09-10 08:54:00,
2013-09-10 04:59:00,67.6,63.7,30.12,WSW,239,0.0,0.0,87,0.00,,,0.00,meteohub,2013-09-10 08:59:00,
2013-09-10 05:04:00,67.5,63.9,30.12,WSW,239,0.0,0.0,88,0.00,,,0.00,meteohub,2013-09-10 09:04:00,
2013-09-10 05:09:00,67.3,63.9,30.12,SW,233,0.0,0.0,89,0.00,,,0.00,meteohub,2013-09-10 09:09:00,
2013-09-10 05:14:00,66.6,63.1,30.11,SW,234,0.0,0.0,89,0.00,,,0.00,meteohub,2013-09-10 09:14:00,
2013-09-10 05:20:00,66.6,63.1,30.12,SW,234,0.0,0.0,89,0.00,,,0.00,meteohub,2013-09-10 09:20:00,
2013-09-10 05:25:00,66.6,63.1,30.12,North,-999,-999.0,0.0,89,0.00,,,0.00,meteohub,2013-09-10 09:25:00,
2013-09-10 07:44:00,68.4,65.7,30.12,North,-999,-999.0,-999.0,91,-99.99,,,0.00,meteohub,2013-09-10 11:44:00,
2013-09-10 07:49:00,68.4,65.7,30.12,North,-999,-999.0,-999.0,91,-99.99,,,0.00,meteohub,2013-09-10 11:49:00,
2013-09-10 07:54:00,68.4,66.0,30.12,SW,229,0.0,-999.0,92,0.00,,,0.00,meteohub,2013-09-10 11:54:00,
2013-09-10 07:59:00,68.4,66.0,30.12,SW,229,0.0,0.0,92,0.00,,,0.00,meteohub,2013-09-10 11:59:00,
2013-09-10 08:04:00,68.4,66.0,30.12,SW,229,0.0,0.0,92,0.00,,,0.00,meteohub,2013-09-10 12:04:00,
2013-09-10 08:09:00,68.5,66.2,30.12,ESE,108,0.0,0.0,92,0.00,,,0.00,meteohub,2013-09-10 12:09:00,
2013-09-10 08:14:00,68.5,66.4,30.12,WSW,240,0.0,0.0,93,0.00,,,0.00,meteohub,2013-09-10 12:14:00,
2013-09-10 08:19:00,68.7,66.6,30.13,WSW,242,0.0,2.0,93,0.00,,,0.00,meteohub,2013-09-10 12:19:00,
2013-09-10 08:24:00,69.1,66.9,30.12,WSW,254,0.0,2.0,93,0.00,,,0.00,meteohub,2013-09-10 12:24:00,
2013-09-10 08:29:00,69.3,67.1,30.12,SW,232,0.0,2.0,93,0.00,,,0.00,meteohub,2013-09-10 12:29:00,
2013-09-10 08:34:00,69.4,67.1,30.12,WSW,246,0.0,2.0,92,0.00,,,0.00,meteohub,2013-09-10 12:34:00,
2013-09-10 08:39:00,69.6,67.3,30.12,SW,217,0.0,3.0,92,0.00,,,0.00,meteohub,2013-09-10 12:39:00,
2013-09-10 08:44:00,69.8,67.3,30.12,WSW,240,0.0,3.0,92,0.00,,,0.00,meteohub,2013-09-10 12:44:00,
2013-09-10 08:49:00,70.0,67.5,30.12,WSW,242,0.0,3.0,92,0.00,,,0.00,meteohub,2013-09-10 12:49:00,
2013-09-10 08:54:00,70.2,67.6,30.12,SW,232,0.0,2.0,92,0.00,,,0.00,meteohub,2013-09-10 12:54:00,
2013-09-10 08:59:00,70.3,67.8,30.12,SSW,195,3.0,3.0,92,0.00,,,0.00,meteohub,2013-09-10 12:59:00,
2013-09-10 09:04:00,70.7,68.0,30.12,West,259,0.0,2.0,91,0.00,,,0.00,meteohub,2013-09-10 13:04:00,
2013-09-10 09:10:00,70.9,68.2,30.13,SE,134,0.0,5.0,91,0.00,,,0.00,meteohub,2013-09-10 13:10:00,
2013-09-10 09:15:00,71.1,68.0,30.14,West,266,0.0,5.0,90,0.00,,,0.00,meteohub,2013-09-10 13:15:00,
2013-09-10 09:20:00,71.1,68.0,30.14,South,170,0.0,5.0,90,0.00,,,0.00,meteohub,2013-09-10 13:20:00,
2013-09-10 09:25:00,71.2,68.2,30.14,WSW,250,0.0,3.0,90,0.00,,,0.00,meteohub,2013-09-10 13:25:00,
2013-09-10 09:30:00,71.4,68.4,30.14,SSE,163,0.0,1.0,90,0.00,,,0.00,meteohub,2013-09-10 13:30:00,
2013-09-10 09:35:00,71.8,68.7,30.14,WSW,255,1.0,2.0,90,0.00,,,0.00,meteohub,2013-09-10 13:35:00,
2013-09-10 09:40:00,72.0,68.5,30.14,SSW,193,0.0,5.0,89,0.00,,,0.00,meteohub,2013-09-10 13:40:00,
2013-09-10 09:45:00,72.1,68.7,30.14,SSW,205,0.0,5.0,89,0.00,,,0.00,meteohub,2013-09-10 13:45:00,
2013-09-10 09:50:00,72.1,68.7,30.14,West,266,1.0,5.0,89,0.00,,,0.00,meteohub,2013-09-10 13:50:00,
2013-09-10 09:55:00,72.3,68.5,30.13,West,278,0.0,3.0,88,0.00,,,0.00,meteohub,2013-09-10 13:55:00,
2013-09-10 10:00:00,72.7,68.9,30.13,WSW,238,0.0,3.0,88,0.00,,,0.00,meteohub,2013-09-10 14:00:00,
2013-09-10 10:05:00,72.7,68.9,30.12,WSW,257,2.0,4.0,88,0.00,,,0.00,meteohub,2013-09-10 14:05:00,
2013-09-10 10:10:00,72.9,69.1,30.13,SSW,196,0.0,4.0,88,0.00,,,0.00,meteohub,2013-09-10 14:10:00,
2013-09-10 10:15:00,72.9,69.1,30.13,SSW,211,0.0,4.0,88,0.00,,,0.00,meteohub,2013-09-10 14:15:00,
2013-09-10 10:20:00,73.0,69.3,30.14,WSW,250,2.0,3.0,88,0.00,,,0.00,meteohub,2013-09-10 14:20:00,
2013-09-10 10:25:00,73.2,69.1,30.14,SW,231,0.0,3.0,87,0.00,,,0.00,meteohub,2013-09-10 14:25:00,
2013-09-10 10:30:00,73.2,69.1,30.13,WSW,252,0.0,3.0,87,0.00,,,0.00,meteohub,2013-09-10 14:30:00,
2013-09-10 10:35:00,73.6,69.4,30.13,West,278,0.0,3.0,87,0.00,,,0.00,meteohub,2013-09-10 14:35:00,
2013-09-10 10:40:00,73.6,69.4,30.13,WSW,253,0.0,4.0,87,0.00,,,0.00,meteohub,2013-09-10 14:40:00,
2013-09-10 10:45:00,73.8,69.6,30.13,WSW,253,0.0,4.0,87,0.00,,,0.00,meteohub,2013-09-10 14:45:00,
2013-09-10 10:50:00,73.8,69.6,30.14,WSW,253,0.0,4.0,87,0.00,,,0.00,meteohub,2013-09-10 14:50:00,
2013-09-10 10:56:00,73.9,69.8,30.14,SSE,167,0.0,1.0,87,0.00,,,0.00,meteohub,2013-09-10 14:56:00,
2013-09-10 11:01:00,73.9,69.8,30.14,WSW,249,0.0,0.0,87,0.00,,,0.00,meteohub,2013-09-10 15:01:00,
2013-09-10 11:06:00,74.1,69.6,30.14,West,270,0.0,1.0,86,0.00,,,0.00,meteohub,2013-09-10 15:06:00,
2013-09-10 11:11:00,74.1,69.6,30.14,SW,231,0.0,1.0,86,0.00,,,0.00,meteohub,2013-09-10 15:11:00,
2013-09-10 11:16:00,74.1,69.6,30.12,SW,233,0.0,1.0,86,0.00,,,0.00,meteohub,2013-09-10 15:16:00,
2013-09-10 11:21:00,74.5,70.0,30.14,ENE,78,0.0,5.0,86,0.00,,,0.00,meteohub,2013-09-10 15:21:00,
2013-09-10 11:26:00,74.5,70.0,30.13,East,86,0.0,5.0,86,0.00,,,0.00,meteohub,2013-09-10 15:26:00,
2013-09-10 11:31:00,74.3,70.2,30.13,SSW,205,0.0,4.0,87,0.00,,,0.00,meteohub,2013-09-10 15:31:00,
2013-09-10 11:36:00,74.5,70.0,30.13,SW,224,0.0,0.0,86,0.00,,,0.00,meteohub,2013-09-10 15:36:00,
2013-09-10 11:41:00,74.5,70.0,30.12,SW,232,0.0,0.0,86,0.00,,,0.00,meteohub,2013-09-10 15:41:00,
2013-09-10 11:46:00,74.7,70.2,30.12,ESE,116,0.0,0.0,86,0.00,,,0.00,meteohub,2013-09-10 15:46:00,
2013-09-10 11:51:00,74.7,70.5,30.12,ESE,116,0.0,0.0,87,0.00,,,0.00,meteohub,2013-09-10 15:51:00,
2013-09-10 11:56:00,74.8,70.3,30.12,ESE,112,1.0,0.0,86,0.00,,,0.00,meteohub,2013-09-10 15:56:00,
2013-09-10 12:01:00,75.0,70.2,30.11,WSW,252,0.0,2.0,85,0.00,,,0.00,meteohub,2013-09-10 16:01:00,
2013-09-10 12:06:00,75.4,70.5,30.11,WSW,252,0.0,2.0,85,0.00,,,0.00,meteohub,2013-09-10 16:06:00,
2013-09-10 12:11:00,75.6,70.7,30.11,ENE,70,0.0,1.0,85,0.00,,,0.00,meteohub,2013-09-10 16:11:00,
2013-09-10 12:16:00,75.9,71.1,30.11,ENE,69,0.0,0.0,85,0.00,,,0.00,meteohub,2013-09-10 16:16:00,
2013-09-10 12:21:00,76.1,70.9,30.10,WSW,257,1.0,0.0,84,0.00,,,0.00,meteohub,2013-09-10 16:21:00,
2013-09-10 12:27:00,76.1,70.5,30.11,SW,226,1.0,3.0,83,0.00,,,0.00,meteohub,2013-09-10 16:27:00,
2013-09-10 12:32:00,76.1,70.5,30.10,SW,226,0.0,3.0,83,0.00,,,0.00,meteohub,2013-09-10 16:32:00,
2013-09-10 12:37:00,76.1,70.5,30.10,SW,228,0.0,3.0,83,0.00,,,0.00,meteohub,2013-09-10 16:37:00,
2013-09-10 12:42:00,76.1,70.9,30.10,SW,226,0.0,1.0,84,0.00,,,0.00,meteohub,2013-09-10 16:42:00,
2013-09-10 12:47:00,76.1,70.9,30.09,SW,228,0.0,0.0,84,0.00,,,0.00,meteohub,2013-09-10 16:47:00,
2013-09-10 12:52:00,76.1,70.5,30.09,WSW,242,0.0,0.0,83,0.00,,,0.00,meteohub,2013-09-10 16:52:00,
2013-09-10 12:57:00,76.3,71.1,30.08,WSW,242,0.0,2.0,84,0.00,,,0.00,meteohub,2013-09-10 16:57:00,
2013-09-10 13:02:00,76.5,70.9,30.08,WSW,255,0.0,4.0,83,0.00,,,0.00,meteohub,2013-09-10 17:02:00,
2013-09-10 13:07:00,76.8,71.2,30.08,WSW,249,2.0,4.0,83,0.00,,,0.00,meteohub,2013-09-10 17:07:00,
2013-09-10 13:12:00,77.2,71.2,30.07,SW,231,0.0,4.0,82,0.00,,,0.00,meteohub,2013-09-10 17:12:00,
2013-09-10 13:17:00,77.5,71.6,30.06,NE,44,0.0,5.0,82,0.00,,,0.00,meteohub,2013-09-10 17:17:00,
2013-09-10 13:22:00,78.1,71.8,30.06,SSE,153,0.0,6.0,81,0.00,,,0.00,meteohub,2013-09-10 17:22:00,
2013-09-10 13:27:00,78.4,71.8,30.06,West,271,3.0,6.0,80,0.00,,,0.00,meteohub,2013-09-10 17:27:00,
2013-09-10 13:32:00,78.6,71.6,30.06,WSW,238,2.0,7.0,79,0.00,,,0.00,meteohub,2013-09-10 17:32:00,
2013-09-10 13:37:00,78.6,72.0,30.06,WSW,248,1.0,11.0,80,0.00,,,0.00,meteohub,2013-09-10 17:37:00,
2013-09-10 13:42:00,79.0,71.6,30.06,SW,235,2.0,11.0,78,0.00,,,0.00,meteohub,2013-09-10 17:42:00,
2013-09-10 13:47:00,79.3,72.0,30.06,SW,233,2.0,11.0,78,0.00,,,0.00,meteohub,2013-09-10 17:47:00,
2013-09-10 13:52:00,79.9,72.9,30.05,SW,231,1.0,8.0,79,0.00,,,0.00,meteohub,2013-09-10 17:52:00,
2013-09-10 13:57:00,80.4,72.9,30.04,West,262,4.0,7.0,78,0.00,,,0.00,meteohub,2013-09-10 17:57:00,
2013-09-10 14:02:00,80.8,72.5,30.04,WSW,247,2.0,7.0,76,0.00,,,0.00,meteohub,2013-09-10 18:02:00,
2013-09-10 14:07:00,81.0,72.7,30.04,West,262,2.0,7.0,76,0.00,,,0.00,meteohub,2013-09-10 18:07:00,
2013-09-10 14:12:00,81.1,72.5,30.04,WSW,240,5.0,9.0,75,0.00,,,0.00,meteohub,2013-09-10 18:12:00,
2013-09-10 14:17:00,81.3,72.3,30.04,NE,42,1.0,9.0,74,0.00,,,0.00,meteohub,2013-09-10 18:17:00,
2013-09-10 14:22:00,81.1,72.1,30.04,West,262,1.0,9.0,74,0.00,,,0.00,meteohub,2013-09-10 18:22:00,
2013-09-10 14:27:00,81.3,72.7,30.04,WSW,255,1.0,9.0,75,0.00,,,0.00,meteohub,2013-09-10 18:27:00,
2013-09-10 14:32:00,81.7,73.0,30.05,WSW,251,0.0,7.0,75,0.00,,,0.00,meteohub,2013-09-10 18:32:00,
2013-09-10 14:37:00,82.0,72.9,30.05,West,275,0.0,4.0,74,0.00,,,0.00,meteohub,2013-09-10 18:37:00,
2013-09-10 14:42:00,82.2,73.0,30.05,WSW,257,0.0,6.0,74,0.00,,,0.00,meteohub,2013-09-10 18:42:00,
2013-09-10 14:47:00,82.6,73.4,30.06,WSW,255,1.0,6.0,74,0.00,,,0.00,meteohub,2013-09-10 18:47:00,
2013-09-10 14:52:00,82.8,73.2,30.05,WSW,245,2.0,6.0,73,0.00,,,0.00,meteohub,2013-09-10 18:52:00,
2013-09-10 14:57:00,83.1,73.6,30.05,West,271,0.0,5.0,73,0.00,,,0.00,meteohub,2013-09-10 18:57:00,
2013-09-10 15:02:00,83.5,73.6,30.05,West,260,2.0,5.0,72,0.00,,,0.00,meteohub,2013-09-10 19:02:00,
2013-09-10 15:07:00,83.7,73.6,30.05,SW,233,0.0,5.0,72,0.00,,,0.00,meteohub,2013-09-10 19:07:00,
2013-09-10 15:12:00,83.8,73.4,30.05,West,262,1.0,4.0,71,0.00,,,0.00,meteohub,2013-09-10 19:12:00,
2013-09-10 15:17:00,83.8,73.4,30.05,SW,229,1.0,5.0,71,0.00,,,0.00,meteohub,2013-09-10 19:17:00,
2013-09-10 15:22:00,83.7,73.2,30.05,ENE,72,0.0,5.0,71,0.00,,,0.00,meteohub,2013-09-10 19:22:00,
2013-09-10 15:27:00,83.1,73.2,30.05,WSW,257,1.0,7.0,72,0.00,,,0.00,meteohub,2013-09-10 19:27:00,
2013-09-10 15:32:00,82.4,72.9,30.05,West,267,1.0,7.0,73,0.00,,,0.00,meteohub,2013-09-10 19:32:00,
2013-09-10 15:37:00,81.9,72.7,30.05,West,273,2.0,7.0,74,0.00,,,0.00,meteohub,2013-09-10 19:37:00,
2013-09-10 15:42:00,81.7,73.0,30.05,WSW,241,1.0,7.0,75,0.00,,,0.00,meteohub,2013-09-10 19:42:00,
2013-09-10 15:47:00,81.5,72.9,30.05,WSW,253,2.0,7.0,75,0.00,,,0.00,meteohub,2013-09-10 19:47:00,
2013-09-10 15:52:00,81.5,72.9,30.04,WNW,284,1.0,7.0,75,0.00,,,0.00,meteohub,2013-09-10 19:52:00,
2013-09-10 15:57:00,81.7,73.4,30.05,South,173,0.0,6.0,76,0.00,,,0.00,meteohub,2013-09-10 19:57:00,
2013-09-10 16:02:00,81.7,73.0,30.04,WSW,255,2.0,5.0,75,0.00,,,0.00,meteohub,2013-09-10 20:02:00,
2013-09-10 16:07:00,81.7,73.0,30.04,East,79,1.0,6.0,75,0.00,,,0.00,meteohub,2013-09-10 20:07:00,
2013-09-10 16:12:00,81.9,72.7,30.04,NW,314,1.0,6.0,74,0.00,,,0.00,meteohub,2013-09-10 20:12:00,
2013-09-10 16:17:00,82.0,73.4,30.04,West,267,0.0,6.0,75,0.00,,,0.00,meteohub,2013-09-10 20:17:00,
2013-09-10 16:22:00,81.9,72.7,30.04,WSW,249,2.0,4.0,74,0.00,,,0.00,meteohub,2013-09-10 20:22:00,
2013-09-10 16:27:00,81.5,73.2,30.04,SW,236,1.0,4.0,76,0.00,,,0.00,meteohub,2013-09-10 20:27:00,
2013-09-10 16:32:00,81.3,73.0,30.04,WSW,240,0.0,4.0,76,0.00,,,0.00,meteohub,2013-09-10 20:32:00,
2013-09-10 16:37:00,81.3,73.0,30.04,WSW,256,0.0,4.0,76,0.00,,,0.00,meteohub,2013-09-10 20:37:00,
2013-09-10 16:42:00,81.7,73.4,30.04,WSW,246,0.0,2.0,76,0.00,,,0.00,meteohub,2013-09-10 20:42:00,
2013-09-10 16:47:00,81.7,73.4,30.04,WNW,293,0.0,3.0,76,0.00,,,0.00,meteohub,2013-09-10 20:47:00,
2013-09-10 16:52:00,81.3,73.0,30.04,WSW,256,3.0,4.0,76,0.00,,,0.00,meteohub,2013-09-10 20:52:00,
2013-09-10 16:57:00,81.1,72.9,30.04,WNW,283,1.0,6.0,76,0.00,,,0.00,meteohub,2013-09-10 20:57:00,
2013-09-10 17:02:00,81.0,73.0,30.04,WSW,249,0.0,6.0,77,0.00,,,0.00,meteohub,2013-09-10 21:02:00,
2013-09-10 17:07:00,80.8,73.2,30.04,West,260,2.0,6.0,78,0.00,,,0.00,meteohub,2013-09-10 21:07:00,
2013-09-10 17:12:00,80.8,73.2,30.04,East,79,0.0,6.0,78,0.00,,,0.00,meteohub,2013-09-10 21:12:00,
2013-09-10 17:17:00,81.0,73.4,30.04,NE,43,0.0,6.0,78,0.00,,,0.00,meteohub,2013-09-10 21:17:00,
2013-09-10 17:22:00,81.1,73.6,30.04,West,259,0.0,6.0,78,0.00,,,0.00,meteohub,2013-09-10 21:22:00,
2013-09-10 17:27:00,81.0,73.4,30.04,ENE,77,0.0,3.0,78,0.00,,,0.00,meteohub,2013-09-10 21:27:00,
2013-09-10 17:32:00,80.8,73.6,30.04,WSW,248,0.0,2.0,79,0.00,,,0.00,meteohub,2013-09-10 21:32:00,
2013-09-10 17:37:00,80.6,73.4,30.04,WSW,248,0.0,3.0,79,0.00,,,0.00,meteohub,2013-09-10 21:37:00,
2013-09-10 17:42:00,80.4,73.2,30.04,WSW,248,0.0,3.0,79,0.00,,,0.00,meteohub,2013-09-10 21:42:00,
2013-09-10 17:47:00,80.2,73.6,30.04,WSW,248,0.0,3.0,80,0.00,,,0.00,meteohub,2013-09-10 21:47:00,
2013-09-10 17:52:00,80.2,73.6,30.04,West,273,0.0,1.0,80,0.00,,,0.00,meteohub,2013-09-10 21:52:00,
2013-09-10 17:57:00,80.8,73.6,30.04,West,273,0.0,3.0,79,0.00,,,0.00,meteohub,2013-09-10 21:57:00,
2013-09-10 18:02:00,80.8,73.6,30.04,WSW,252,0.0,3.0,79,0.00,,,0.00,meteohub,2013-09-10 22:02:00,
2013-09-10 18:07:00,80.8,73.6,30.04,WSW,249,0.0,4.0,79,0.00,,,0.00,meteohub,2013-09-10 22:07:00,
2013-09-10 18:12:00,80.8,73.6,30.04,SW,233,0.0,4.0,79,0.00,,,0.00,meteohub,2013-09-10 22:12:00,
2013-09-10 18:17:00,80.6,73.4,30.04,WSW,257,0.0,3.0,79,0.00,,,0.00,meteohub,2013-09-10 22:17:00,
2013-09-10 18:22:00,80.4,73.2,30.04,WSW,257,0.0,3.0,79,0.00,,,0.00,meteohub,2013-09-10 22:22:00,
2013-09-10 18:27:00,80.2,73.6,30.04,WSW,257,0.0,3.0,80,0.00,,,0.00,meteohub,2013-09-10 22:27:00,
2013-09-10 18:32:00,80.1,73.4,30.04,WSW,257,0.0,1.0,80,0.00,,,0.00,meteohub,2013-09-10 22:32:00,
2013-09-10 18:37:00,80.2,73.6,30.04,WSW,257,0.0,0.0,80,0.00,,,0.00,meteohub,2013-09-10 22:37:00,
2013-09-10 18:42:00,80.1,73.4,30.05,WSW,257,0.0,1.0,80,0.00,,,0.00,meteohub,2013-09-10 22:42:00,
2013-09-10 18:47:00,79.9,73.6,30.04,WSW,257,0.0,1.0,81,0.00,,,0.00,meteohub,2013-09-10 22:47:00,
2013-09-10 18:52:00,79.5,73.2,30.04,WSW,249,2.0,0.0,81,0.00,,,0.00,meteohub,2013-09-10 22:52:00,
2013-09-10 18:57:00,79.3,73.0,30.04,WSW,256,0.0,4.0,81,0.00,,,0.00,meteohub,2013-09-10 22:57:00,
2013-09-10 19:02:00,79.2,72.9,30.04,WSW,255,0.0,4.0,81,0.00,,,0.00,meteohub,2013-09-10 23:02:00,
2013-09-10 19:07:00,79.0,73.0,30.05,WSW,255,0.0,4.0,82,0.00,,,0.00,meteohub,2013-09-10 23:07:00,
2013-09-10 19:12:00,79.2,73.2,30.05,WSW,255,0.0,1.0,82,0.00,,,0.00,meteohub,2013-09-10 23:12:00,
2013-09-10 19:17:00,79.0,73.0,30.05,WSW,256,0.0,1.0,82,0.00,,,0.00,meteohub,2013-09-10 23:17:00,
2013-09-10 19:22:00,78.6,73.0,30.05,WSW,256,0.0,0.0,83,0.00,,,0.00,meteohub,2013-09-10 23:22:00,
2013-09-10 19:27:00,78.3,72.7,30.05,WSW,256,0.0,0.0,83,0.00,,,0.00,meteohub,2013-09-10 23:27:00,
2013-09-10 19:32:00,78.1,72.9,30.05,WSW,256,0.0,0.0,84,0.00,,,0.00,meteohub,2013-09-10 23:32:00,
2013-09-10 19:37:00,77.5,72.3,30.05,WSW,256,0.0,0.0,84,0.00,,,0.00,meteohub,2013-09-10 23:37:00,
2013-09-10 19:42:00,77.4,72.5,30.05,WSW,255,0.0,0.0,85,0.00,,,0.00,meteohub,2013-09-10 23:42:00,
2013-09-10 19:47:00,77.2,72.3,30.05,WSW,256,0.0,0.0,85,0.00,,,0.00,meteohub,2013-09-10 23:47:00,
2013-09-10 19:52:00,76.8,72.3,30.06,WSW,256,0.0,0.0,86,0.00,,,0.00,meteohub,2013-09-10 23:52:00,
2013-09-10 19:57:00,76.6,72.5,30.06,WSW,255,0.0,0.0,87,0.00,,,0.00,meteohub,2013-09-10 23:57:00,
2013-09-10 20:02:00,76.5,72.3,30.06,WSW,256,0.0,0.0,87,0.00,,,0.00,meteohub,2013-09-11 00:02:00,
2013-09-10 20:07:00,76.3,72.1,30.06,WSW,256,0.0,0.0,87,0.00,,,0.00,meteohub,2013-09-11 00:07:00,
2013-09-10 20:12:00,75.9,72.1,30.06,WSW,256,0.0,0.0,88,0.00,,,0.00,meteohub,2013-09-11 00:12:00,
2013-09-10 20:17:00,75.7,72.0,30.06,WSW,256,0.0,0.0,88,0.00,,,0.00,meteohub,2013-09-11 00:17:00,
2013-09-10 20:22:00,75.6,71.8,30.06,WSW,256,0.0,0.0,88,0.00,,,0.00,meteohub,2013-09-11 00:22:00,
2013-09-10 20:27:00,75.6,72.1,30.06,WSW,256,0.0,0.0,89,0.00,,,0.00,meteohub,2013-09-11 00:27:00,
2013-09-10 20:32:00,75.4,72.0,30.06,WSW,256,0.0,0.0,89,0.00,,,0.00,meteohub,2013-09-11 00:32:00,
2013-09-10 20:37:00,75.6,72.5,30.06,WSW,256,0.0,0.0,90,0.00,,,0.00,meteohub,2013-09-11 00:37:00,
2013-09-10 20:42:00,75.6,72.5,30.06,WSW,256,0.0,0.0,90,0.00,,,0.00,meteohub,2013-09-11 00:42:00,
2013-09-10 20:47:00,75.7,72.3,30.06,WSW,256,0.0,0.0,89,0.00,,,0.00,meteohub,2013-09-11 00:47:00,
2013-09-10 20:52:00,75.7,72.3,30.06,WSW,256,0.0,0.0,89,0.00,,,0.00,meteohub,2013-09-11 00:52:00,
2013-09-10 20:57:00,75.7,72.3,30.06,WSW,255,0.0,0.0,89,0.00,,,0.00,meteohub,2013-09-11 00:57:00,
2013-09-10 21:02:00,75.6,72.1,30.07,WSW,255,0.0,0.0,89,0.00,,,0.00,meteohub,2013-09-11 01:02:00,
2013-09-10 21:07:00,75.6,72.1,30.07,WSW,256,0.0,0.0,89,0.00,,,0.00,meteohub,2013-09-11 01:07:00,
2013-09-10 21:12:00,75.4,72.0,30.07,WSW,255,0.0,0.0,89,0.00,,,0.00,meteohub,2013-09-11 01:12:00,
2013-09-10 21:17:00,75.2,71.8,30.07,WSW,256,0.0,0.0,89,0.00,,,0.00,meteohub,2013-09-11 01:17:00,
2013-09-10 21:22:00,75.0,71.6,30.07,WSW,255,0.0,0.0,89,0.00,,,0.00,meteohub,2013-09-11 01:22:00,
2013-09-10 21:27:00,75.0,72.0,30.07,WSW,256,0.0,0.0,90,0.00,,,0.00,meteohub,2013-09-11 01:27:00,
2013-09-10 21:32:00,74.8,71.8,30.07,WSW,256,0.0,0.0,90,0.00,,,0.00,meteohub,2013-09-11 01:32:00,
2013-09-10 21:37:00,74.8,71.8,30.07,WSW,255,0.0,0.0,90,0.00,,,0.00,meteohub,2013-09-11 01:37:00,
2013-09-10 21:42:00,74.7,71.6,30.07,WSW,256,0.0,0.0,90,0.00,,,0.00,meteohub,2013-09-11 01:42:00,
2013-09-10 21:47:00,74.5,71.6,30.07,WSW,256,0.0,0.0,91,0.00,,,0.00,meteohub,2013-09-11 01:47:00,
2013-09-10 21:52:00,74.3,71.4,30.07,WSW,255,0.0,0.0,91,0.00,,,0.00,meteohub,2013-09-11 01:52:00,
2013-09-10 21:57:00,74.1,71.2,30.07,WSW,255,0.0,0.0,91,0.00,,,0.00,meteohub,2013-09-11 01:57:00,
2013-09-10 22:02:00,73.9,71.1,30.07,WSW,256,0.0,0.0,91,0.00,,,0.00,meteohub,2013-09-11 02:02:00,
2013-09-10 22:07:00,73.9,71.4,30.07,WSW,255,0.0,0.0,92,0.00,,,0.00,meteohub,2013-09-11 02:07:00,
2013-09-10 22:12:00,73.8,71.2,30.07,WSW,256,0.0,0.0,92,0.00,,,0.00,meteohub,2013-09-11 02:12:00,
2013-09-10 22:17:00,73.6,71.1,30.07,WSW,256,0.0,0.0,92,0.00,,,0.00,meteohub,2013-09-11 02:17:00,
2013-09-10 22:22:00,73.6,71.1,30.07,WSW,256,0.0,0.0,92,0.00,,,0.00,meteohub,2013-09-11 02:22:00,
2013-09-10 22:27:00,73.4,70.9,30.07,WSW,255,0.0,0.0,92,0.00,,,0.00,meteohub,2013-09-11 02:27:00,
2013-09-10 22:32:00,73.4,71.2,30.08,WSW,255,0.0,0.0,93,0.00,,,0.00,meteohub,2013-09-11 02:32:00,
2013-09-10 22:37:00,73.2,71.1,30.07,WSW,255,0.0,0.0,93,0.00,,,0.00,meteohub,2013-09-11 02:37:00,
2013-09-10 22:42:00,73.2,71.1,30.07,WSW,255,0.0,0.0,93,0.00,,,0.00,meteohub,2013-09-11 02:42:00,
2013-09-10 22:47:00,73.2,71.1,30.08,WSW,255,0.0,0.0,93,0.00,,,0.00,meteohub,2013-09-11 02:47:00,
2013-09-10 22:52:00,73.0,70.9,30.08,WSW,256,0.0,0.0,93,0.00,,,0.00,meteohub,2013-09-11 02:52:00,
2013-09-10 22:57:00,73.0,70.9,30.08,WSW,256,0.0,0.0,93,0.00,,,0.00,meteohub,2013-09-11 02:57:00,
2013-09-10 23:02:00,73.0,70.9,30.08,WSW,256,0.0,0.0,93,0.00,,,0.00,meteohub,2013-09-11 03:02:00,
2013-09-10 23:07:00,72.9,71.1,30.08,WSW,256,0.0,0.0,94,0.00,,,0.00,meteohub,2013-09-11 03:07:00,
2013-09-10 23:12:00,72.9,71.1,30.08,WSW,255,0.0,0.0,94,0.00,,,0.00,meteohub,2013-09-11 03:12:00,
2013-09-10 23:17:00,72.9,71.1,30.08,WSW,256,0.0,0.0,94,0.00,,,0.00,meteohub,2013-09-11 03:17:00,
2013-09-10 23:22:00,72.9,71.1,30.08,WSW,256,0.0,0.0,94,0.00,,,0.00,meteohub,2013-09-11 03:22:00,
2013-09-10 23:27:00,72.9,71.1,30.08,WSW,255,0.0,0.0,94,0.00,,,0.00,meteohub,2013-09-11 03:27:00,
2013-09-10 23:32:00,72.9,71.1,30.08,WSW,256,0.0,0.0,94,0.00,,,0.00,meteohub,2013-09-11 03:32:00,
2013-09-10 23:37:00,72.9,71.1,30.08,WSW,255,0.0,0.0,94,0.00,,,0.00,meteohub,2013-09-11 03:37:00,
2013-09-10 23:42:00,72.9,71.1,30.08,WSW,255,0.0,0.0,94,0.00,,,0.00,meteohub,2013-09-11 03:42:00,
2013-09-10 23:47:00,72.9,71.1,30.08,WSW,255,0.0,0.0,94,0.00,,,0.00,meteohub,2013-09-11 03:47:00,
2013-09-10 23:52:00,72.9,71.4,30.08,WSW,256,0.0,0.0,95,0.00,,,0.00,meteohub,2013-09-11 03:52:00,
2013-09-10 23:57:00,72.9,71.4,30.08,WSW,255,0.0,0.0,95,0.00,,,0.00,meteohub,2013-09-11 03:57:00,